Princeton, MN

5:45 AM CST on November 13, 2019 (GMT -0600)
Princeton Municipal

Weather History for KPNM - September, 2019

Change the Weather History Date:

Saturday, September 28, 2019

  Actual Average Record
Temperature  
Mean Temperature 50 °F -  
Max Temperature 62 °F 62 °F 82 °F (2014)
Min Temperature 37 °F 39 °F 30 °F (2018)
Degree Days  
Heating Degree Days 16    
Moisture  
Dew Point 39 °F    
Average Humidity 68    
Maximum Humidity 100    
Minimum Humidity 42    
Precipitation  
Precipitation 0.00 in - - ()
Sea Level Pressure  
Sea Level Pressure 30.18 in    
Wind  
Wind Speed 3 mph (NE)    
Max Wind Speed 10 mph    
Max Gust Speed 18 mph    
Visibility 10 miles    
Events Rain    
Averages and records for this station are not official NWS values.
T = Trace of Precipitation, MM = Missing Value Source: NWS Daily Summary

Daily Weather History Graph

Daily Weather History Graph

Search for Another Location

Airport or City:

Astronomy

Sep. 28, 2019 Rise Set
Actual Time 7:08 AM CDT 7:00 PM CDT
Civil Twilight 6:39 AM CDT 7:30 PM CDT
Nautical Twilight 6:04 AM CDT 8:04 PM CDT
Astronomical Twilight 5:29 AM CDT 8:39 PM CDT
Moon 6:41 AM CDT (9/28) 7:28 PM CDT (9/28)
Length of Visible Light 12h 51m
Length of Day
11h 52m
Waning Crescent, 0% of the Moon is Illuminated
Sep 28
Waning Crescent
Sep 28
New
Oct 5
First Quarter
Oct 13
Full
Oct 21
Last Quarter

Hourly Weather History & Observations

Time (CDT) Temp. Windchill Dew Point Humidity Pressure Visibility Wind Dir Wind Speed Gust Speed Precip Events Conditions
12:15 AM 46.4 °F - 44.6 °F 93% 29.99 in 10.0 mi Calm Calm - N/A   Clear
12:35 AM 46.4 °F - 42.8 °F 87% 29.99 in 10.0 mi Calm Calm - N/A   Clear
12:55 AM 44.6 °F - 41.0 °F 87% 30.00 in 10.0 mi Calm Calm - N/A   Clear
12:59 AM 42.8 °F - 39.2 °F 87% 30.01 in 10.0 mi Calm Calm - N/A   Clear
1:17 AM 42.8 °F - 42.8 °F 100% 30.03 in 10.0 mi Calm Calm - N/A   Clear
1:35 AM 41.0 °F - 39.2 °F 93% 30.03 in 10.0 mi Calm Calm - N/A   Clear
1:36 AM 41.0 °F - 39.2 °F 93% 30.03 in 7.0 mi Calm Calm - N/A   Clear
1:55 AM 42.8 °F - 42.8 °F 100% 30.05 in 10.0 mi Calm Calm - N/A   Clear
1:56 AM 42.8 °F - 42.8 °F 100% 30.05 in 10.0 mi Calm Calm - N/A   Clear
2:15 AM 42.8 °F - 42.8 °F 100% 30.05 in 10.0 mi Calm Calm - N/A   Clear
2:20 AM 44.6 °F - 42.8 °F 93% 30.05 in 10.0 mi Calm Calm - N/A   Clear
2:38 AM 44.6 °F - 42.8 °F 93% 30.06 in 10.0 mi Calm Calm - N/A   Clear
2:56 AM 42.8 °F - 42.8 °F 100% 30.06 in 10.0 mi Calm Calm - N/A   Clear
3:15 AM 42.8 °F - 42.8 °F 100% 30.06 in 10.0 mi Calm Calm - N/A   Clear
3:16 AM 42.8 °F - 42.8 °F 100% 30.06 in 10.0 mi Calm Calm - N/A   Clear
3:35 AM 42.8 °F - 42.8 °F 100% 30.07 in 10.0 mi Calm Calm - N/A   Clear
3:59 AM 42.8 °F - 41.0 °F 93% 30.08 in 10.0 mi Calm Calm - N/A   Clear
4:17 AM 41.0 °F - 39.2 °F 93% 30.09 in 10.0 mi Calm Calm - N/A   Clear
4:35 AM 41.0 °F - 39.2 °F 93% 30.09 in 7.0 mi Calm Calm - N/A   Clear
4:55 AM 39.2 °F - 37.4 °F 93% 30.10 in 10.0 mi Calm Calm - N/A   Clear
4:56 AM 39.2 °F - 37.4 °F 93% 30.10 in 10.0 mi Calm Calm - N/A   Clear
5:15 AM 39.2 °F - 37.4 °F 93% 30.11 in 10.0 mi Calm Calm - N/A   Clear
5:38 AM 39.2 °F - 37.4 °F 93% 30.12 in 10.0 mi Calm Calm - N/A   Clear
5:56 AM 37.4 °F - 37.4 °F 100% 30.13 in 10.0 mi Calm Calm - N/A   Clear
6:15 AM 39.2 °F - 37.4 °F 93% 30.13 in 10.0 mi Calm Calm - N/A   Clear
6:35 AM 37.4 °F 34.9 °F 37.4 °F 100% 30.14 in 10.0 mi NNW 3.5 mph - N/A   Clear
6:36 AM 37.4 °F - 37.4 °F 100% 30.15 in 10.0 mi Calm Calm - N/A   Clear
6:59 AM 37.4 °F 33.8 °F 37.4 °F 100% 30.16 in 10.0 mi NNW 4.6 mph - N/A   Clear
7:17 AM 39.2 °F - 37.4 °F 93% 30.16 in 10.0 mi Calm Calm - N/A   Clear
7:35 AM 39.2 °F 37.0 °F 37.4 °F 93% 30.17 in 10.0 mi North 3.5 mph - N/A   Clear
7:36 AM 39.2 °F 37.0 °F 37.4 °F 93% 30.17 in 10.0 mi North 3.5 mph - N/A   Clear
7:55 AM 41.0 °F 39.0 °F 39.2 °F 93% 30.18 in 10.0 mi North 3.5 mph - N/A   Clear
8:15 AM 42.8 °F 41.1 °F 41.0 °F 93% 30.19 in 10.0 mi North 3.5 mph - N/A   Clear
8:38 AM 44.6 °F 43.1 °F 42.8 °F 93% 30.19 in 10.0 mi North 3.5 mph - N/A   Clear
8:56 AM 46.4 °F 44.3 °F 42.8 °F 87% 30.21 in 10.0 mi NNE 4.6 mph - N/A   Clear
9:15 AM 48.2 °F - 42.8 °F 82% 30.21 in 10.0 mi NE 3.5 mph - N/A   Clear
9:16 AM 48.2 °F - 42.8 °F 82% 30.21 in 10.0 mi NE 4.6 mph - N/A   Clear
9:35 AM 51.8 °F - 42.8 °F 71% 30.22 in 10.0 mi NNE 3.5 mph - N/A   Clear
9:36 AM 51.8 °F - 42.8 °F 71% 30.22 in 10.0 mi NNE 4.6 mph - N/A   Clear
9:59 AM 53.6 °F - 41.0 °F 62% 30.24 in 10.0 mi NNE 3.5 mph - N/A   Clear
10:17 AM 53.6 °F - 42.8 °F 67% 30.25 in 10.0 mi North 6.9 mph - N/A   Clear
10:35 AM 55.4 °F - 41.0 °F 58% 30.26 in 10.0 mi NNE 5.8 mph - N/A   Clear
10:55 AM 55.4 °F - 39.2 °F 54% 30.24 in 10.0 mi NE 6.9 mph - N/A   Clear
10:56 AM 55.4 °F - 39.2 °F 54% 30.24 in 10.0 mi NE 5.8 mph - N/A   Clear
11:15 AM 57.2 °F - 39.2 °F 51% 30.25 in 10.0 mi North 8.1 mph - N/A   Clear
11:20 AM 57.2 °F - 39.2 °F 51% 30.25 in 10.0 mi NE 6.9 mph - N/A   Clear
11:38 AM 57.2 °F - 37.4 °F 48% 30.25 in 10.0 mi North 9.2 mph 17.3 mph N/A   Clear
11:56 AM 57.2 °F - 37.4 °F 48% 30.24 in 10.0 mi NNE 8.1 mph - N/A   Clear
12:15 PM 57.2 °F - 37.4 °F 48% 30.24 in 10.0 mi NNE 8.1 mph - N/A   Clear
12:16 PM 57.2 °F - 39.2 °F 51% 30.24 in 10.0 mi NNE 8.1 mph - N/A   Clear
12:35 PM 57.2 °F - 37.4 °F 48% 30.25 in 10.0 mi North 8.1 mph - N/A   Clear
12:36 PM 57.2 °F - 37.4 °F 48% 30.25 in 10.0 mi North 9.2 mph - N/A   Clear
12:59 PM 57.2 °F - 39.2 °F 51% 30.25 in 10.0 mi ENE 6.9 mph - N/A   Clear
1:17 PM 59.0 °F - 39.2 °F 48% 30.24 in 10.0 mi NE 6.9 mph - N/A   Clear
1:35 PM 60.8 °F - 39.2 °F 45% 30.24 in 10.0 mi East 8.1 mph - N/A   Clear
1:36 PM 60.8 °F - 39.2 °F 45% 30.24 in 10.0 mi East 6.9 mph - N/A   Clear
1:55 PM 60.8 °F - 37.4 °F 42% 30.24 in 10.0 mi NE 9.2 mph - N/A   Clear
1:56 PM 60.8 °F - 39.2 °F 45% 30.24 in 10.0 mi NE 8.1 mph - N/A   Clear
2:15 PM 60.8 °F - 39.2 °F 45% 30.23 in 10.0 mi North 10.4 mph - N/A   Clear
2:20 PM 60.8 °F - 37.4 °F 42% 30.23 in 10.0 mi NNE 9.2 mph 17.3 mph N/A   Clear
2:38 PM 62.6 °F - 39.2 °F 42% 30.23 in 10.0 mi NE 8.1 mph - N/A   Clear
2:56 PM 60.8 °F - 37.4 °F 42% 30.23 in 10.0 mi NE 9.2 mph - N/A   Clear
3:15 PM 62.6 °F - 39.2 °F 42% 30.22 in 10.0 mi NNE 10.4 mph 16.1 mph N/A   Clear
3:35 PM 60.8 °F - 37.4 °F 42% 30.23 in 10.0 mi NE 5.8 mph - N/A   Clear
3:36 PM 60.8 °F - 37.4 °F 42% 30.23 in 10.0 mi NNE 8.1 mph - N/A   Clear
3:59 PM 60.8 °F - 37.4 °F 42% 30.23 in 10.0 mi NNE 9.2 mph - N/A   Clear
4:17 PM 59.0 °F - 39.2 °F 48% 30.22 in 10.0 mi NNE 6.9 mph - N/A   Clear
4:35 PM 57.2 °F - 37.4 °F 48% 30.22 in 10.0 mi ENE 6.9 mph - N/A   Clear
4:55 PM 57.2 °F - 39.2 °F 51% 30.23 in 10.0 mi NE 4.6 mph - N/A   Clear
4:56 PM 57.2 °F - 39.2 °F 51% 30.23 in 10.0 mi ENE 5.8 mph - N/A   Clear
5:15 PM 57.2 °F - 39.2 °F 51% 30.22 in 10.0 mi NE 5.8 mph - N/A   Clear
5:38 PM 57.2 °F - 39.2 °F 51% 30.22 in 10.0 mi NE 4.6 mph - N/A   Clear
5:56 PM 57.2 °F - 39.2 °F 51% 30.22 in 10.0 mi NE 6.9 mph - N/A   Clear
6:15 PM 57.2 °F - 39.2 °F 51% 30.23 in 10.0 mi NE 3.5 mph - N/A   Clear
6:35 PM 57.2 °F - 39.2 °F 51% 30.23 in 10.0 mi NE 3.5 mph - N/A   Clear
6:59 PM 55.4 °F - 41.0 °F 58% 30.24 in 10.0 mi ENE 3.5 mph - N/A   Clear
7:16 PM 55.4 °F - 41.0 °F 58% 30.24 in 10.0 mi ENE 5.8 mph - N/A   Clear
7:35 PM 55.4 °F - 41.0 °F 58% 30.25 in 10.0 mi NE 4.6 mph - N/A   Clear
7:36 PM 55.4 °F - 41.0 °F 58% 30.25 in 10.0 mi NE 4.6 mph - N/A   Clear
7:55 PM 55.4 °F - 39.2 °F 54% 30.25 in 10.0 mi ENE 5.8 mph - N/A   Clear
7:56 PM 55.4 °F - 39.2 °F 54% 30.25 in 10.0 mi ENE 5.8 mph - N/A   Clear
8:15 PM 55.4 °F - 39.2 °F 54% 30.25 in 10.0 mi ENE 5.8 mph - N/A   Clear
8:20 PM 55.4 °F - 39.2 °F 54% 30.25 in 10.0 mi ENE 4.6 mph - N/A   Clear
8:38 PM 55.4 °F - 37.4 °F 51% 30.24 in 10.0 mi NE 6.9 mph - N/A   Clear
8:56 PM 55.4 °F - 37.4 °F 51% 30.24 in 10.0 mi ENE 6.9 mph - N/A   Clear
9:15 PM 55.4 °F - 37.4 °F 51% 30.24 in 10.0 mi ENE 6.9 mph - N/A   Clear
9:35 PM 55.4 °F - 37.4 °F 51% 30.24 in 10.0 mi ENE 8.1 mph - N/A   Scattered Clouds
9:59 PM 55.4 °F - 37.4 °F 51% 30.24 in 10.0 mi ENE 9.2 mph - N/A   Mostly Cloudy
10:17 PM 53.6 °F - 37.4 °F 54% 30.23 in 10.0 mi ENE 10.4 mph - N/A   Overcast
10:36 PM 53.6 °F - 37.4 °F 54% 30.23 in 10.0 mi East 10.4 mph 18.4 mph N/A   Mostly Cloudy
10:55 PM 53.6 °F - 37.4 °F 54% 30.24 in 10.0 mi ENE 4.6 mph 16.1 mph N/A Rain Rain
11:15 PM 53.6 °F - 37.4 °F 54% 30.23 in 10.0 mi ENE 9.2 mph - N/A   Scattered Clouds
11:38 PM 51.8 °F - 37.4 °F 58% 30.23 in 10.0 mi NE 8.1 mph - N/A   Light Drizzle
11:56 PM 51.8 °F - 37.4 °F 58% 30.23 in 10.0 mi NE 5.8 mph - N/A   Scattered Clouds